Date String (YYYY-MM-DD hh:mm:ss) UTC,Instrument flags,absolute air pressure of the measurement (hPa),sample flow rate (lpm),inlet stack bypass flow (lpm),air temperature of the measurement (°C),ambient temperature measured by the external sensor (°C),aerosol sample conditioner tube jacket temperature (°C),OPC LED temperature (°C),internal box temperature (°C),relative humidity of the measurement (%),span deviation,mass concentration of particles derived from Lorenz-Mie calculation of OPC scattering (μg/m³),mass concentration of particles derived from Lorenz-Mie calculation of OPC scattering (μg/m³),mass concentration of particles derived from Lorenz-Mie calculation of OPC scattering (μg/m³)
DateTimeUTC,F1_M11,P_M11,Q1_M11,Q2_M11,T1_M11,T2_M11,T3_M11,T4_M11,T5_M11,U1_M11,ZSPAN_M11,X0_M11,X2_M11,X1_M11
2023-11-11 03:00:00,SystemResetWarning,0831.1,4.99,000.00,024.8,023.5,000.0,033.3,026.2,6.2,0000.0,0007.79,0003.57,0003.00
2023-11-11 03:01:00,SystemResetWarning,0831.1,5.00,000.00,024.8,023.5,000.0,033.2,026.2,6.1,0000.0,0007.88,0003.57,0003.01
2023-11-11 03:02:00,SystemResetWarning,0831.2,5.00,000.00,024.8,023.5,000.0,033.2,026.2,6.1,0000.0,0008.25,0003.59,0003.04
2023-11-11 03:03:00,SystemResetWarning,0831.1,5.00,000.00,024.8,023.6,000.0,033.2,026.2,6.1,0000.0,0008.28,0003.61,0003.07
2023-11-11 03:04:00,SystemResetWarning,0831.1,5.00,000.00,024.8,023.6,000.0,033.2,026.2,6.2,0000.0,0008.28,0003.61,0003.10
2023-11-11 03:05:00,SystemResetWarning,0831.2,5.00,000.00,024.8,023.5,000.0,033.2,026.2,6.1,0000.0,0008.45,0003.66,0003.11
2023-11-11 03:06:00,SystemResetWarning,0831.1,5.00,000.00,024.8,023.5,000.0,033.2,026.1,6.1,0000.0,0009.14,0003.70,0003.12
2023-11-11 03:07:00,SystemResetWarning,0831.2,5.00,000.00,024.8,023.5,000.0,033.2,026.1,6.1,0000.0,0009.47,0003.77,0003.13
2023-11-11 03:08:00,SystemResetWarning,0831.1,5.00,000.00,024.7,023.5,000.0,033.2,026.1,6.1,0000.0,0010.11,0003.77,0003.13
2023-11-11 03:09:00,SystemResetWarning,0831.1,5.00,000.00,024.7,023.5,000.0,033.2,026.1,6.1,0000.0,0009.45,0003.77,0003.14
2023-11-11 03:10:00,SystemResetWarning,0831.1,5.00,000.00,024.7,023.5,000.0,033.2,026.1,6.1,0000.0,0009.08,0003.76,0003.13
2023-11-11 03:11:00,SystemResetWarning,0831.1,5.00,000.00,024.7,023.5,000.0,033.2,026.1,6.2,0000.0,0009.05,0003.76,0003.14
2023-11-11 03:12:00,SystemResetWarning,0831.1,5.00,000.00,024.7,023.5,000.0,033.2,026.1,6.4,0000.0,0008.96,0003.74,0003.14
2023-11-11 03:13:00,SystemResetWarning,0831.1,5.00,000.00,024.7,023.5,000.0,033.2,026.1,6.4,0000.0,0008.78,0003.74,0003.15
2023-11-11 03:14:00,SystemResetWarning,0831.1,5.00,000.00,024.7,023.5,000.0,033.2,026.1,6.6,0000.0,0008.68,0003.73,0003.15
2023-11-11 03:15:00,SystemResetWarning,0831.1,5.01,000.00,024.7,023.5,000.0,033.2,026.1,6.7,0000.0,0008.66,0003.74,0003.16
2023-11-11 03:16:00,SystemResetWarning,0831.1,5.00,000.00,024.7,023.4,000.0,033.2,026.0,6.7,0000.0,0008.61,0003.72,0003.15
2023-11-11 03:17:00,SystemResetWarning,0831.2,5.00,000.00,024.7,023.4,000.0,033.1,026.0,6.5,0000.0,0008.05,0003.72,0003.14
2023-11-11 03:18:00,SystemResetWarning,0831.1,5.00,000.00,024.7,023.4,000.0,033.1,026.0,6.6,0000.0,0007.85,0003.68,0003.15
2023-11-11 03:19:00,SystemResetWarning,0831.1,5.00,000.00,024.6,023.4,000.0,033.1,026.0,6.8,0000.0,0006.99,0003.67,0003.15
2023-11-11 03:20:00,SystemResetWarning,0831.2,5.01,000.00,024.6,023.4,000.0,033.1,025.9,7.0,0000.0,0007.13,0003.68,0003.15
2023-11-11 03:21:00,SystemResetWarning,0831.1,5.00,000.00,024.6,023.4,000.0,033.1,026.0,7.1,0000.0,0007.44,0003.70,0003.15
2023-11-11 03:22:00,SystemResetWarning,0831.2,5.00,000.00,024.6,023.3,000.0,033.1,026.0,7.1,0000.0,0007.38,0003.69,0003.15
2023-11-11 03:23:00,SystemResetWarning,0831.2,5.00,000.00,024.6,023.3,000.0,033.1,025.9,7.3,0000.0,0007.47,0003.72,0003.15
2023-11-11 03:24:00,SystemResetWarning,0831.2,5.00,000.00,024.6,023.3,000.0,033.1,025.9,7.3,0000.0,0007.09,0003.70,0003.16
2023-11-11 03:25:00,SystemResetWarning,0831.2,5.01,000.00,024.6,023.3,000.0,033.0,025.9,7.4,0000.0,0007.04,0003.68,0003.15
2023-11-11 03:26:00,SystemResetWarning,0831.2,5.00,000.00,024.6,023.3,000.0,033.0,025.9,7.4,0000.0,0006.96,0003.66,0003.15
2023-11-11 03:27:00,SystemResetWarning,0831.2,5.00,000.00,024.5,023.3,000.0,033.0,025.9,7.4,0000.0,0007.14,0003.66,0003.16
2023-11-11 03:28:00,SystemResetWarning,0831.2,4.99,000.00,024.5,023.2,000.0,033.0,025.9,7.5,0000.0,0007.06,0003.66,0003.18
2023-11-11 03:29:00,SystemResetWarning,0831.2,4.99,000.00,024.5,023.2,000.0,033.0,025.9,7.6,0000.0,0007.05,0003.67,0003.18
2023-11-11 03:30:00,SystemResetWarning,0831.2,5.01,000.00,024.5,023.2,000.0,033.0,025.9,7.6,0000.0,0006.90,0003.67,0003.20
2023-11-11 03:31:00,SystemResetWarning,0831.2,5.01,000.00,024.5,023.2,000.0,033.0,025.8,7.5,0000.0,0006.93,0003.68,0003.20
2023-11-11 03:32:00,SystemResetWarning,0831.2,5.01,000.00,024.5,023.2,000.0,033.0,025.8,7.5,0000.0,0006.78,0003.69,0003.21
2023-11-11 03:33:00,SystemResetWarning,0831.2,5.00,000.00,024.5,023.2,000.0,033.0,025.8,7.5,0000.0,0006.83,0003.69,0003.22
2023-11-11 03:34:00,SystemResetWarning,0831.2,5.00,000.00,024.5,023.2,000.0,033.0,025.8,7.5,0000.0,0006.61,0003.67,0003.22
2023-11-11 03:35:00,SystemResetWarning,0831.2,5.00,000.00,024.5,023.2,000.0,032.9,025.8,7.5,0000.0,0006.61,0003.67,0003.21
2023-11-11 03:36:00,SystemResetWarning,0831.2,5.00,000.00,024.5,023.2,000.0,032.9,025.8,7.6,0000.0,0007.32,0003.74,0003.23
2023-11-11 03:37:00,SystemResetWarning,0831.2,5.00,000.00,024.4,023.2,000.0,032.9,025.7,7.6,0000.0,0007.62,0003.76,0003.24
2023-11-11 03:38:00,SystemResetWarning,0831.2,5.00,000.00,024.4,023.2,000.0,032.9,025.8,7.6,0000.0,0007.65,0003.76,0003.24
2023-11-11 03:39:00,SystemResetWarning,0831.2,4.99,000.00,024.4,023.2,000.0,032.9,025.7,7.6,0000.0,0008.09,0003.74,0003.24
2023-11-11 03:40:00,SystemResetWarning,0831.1,5.01,000.00,024.4,023.1,000.0,032.9,025.7,7.6,0000.0,0008.03,0003.72,0003.23
2023-11-11 03:41:00,SystemResetWarning,0831.2,5.01,000.00,024.4,023.1,000.0,032.9,025.7,7.6,0000.0,0008.01,0003.69,0003.23
2023-11-11 03:42:00,SystemResetWarning,0831.1,4.98,000.00,024.4,023.1,000.0,032.9,025.7,7.6,0000.0,0008.00,0003.68,0003.24
2023-11-11 03:43:00,SystemResetWarning,0831.1,5.00,000.00,024.4,023.1,000.0,032.9,025.7,7.7,0000.0,0007.99,0003.69,0003.23
2023-11-11 03:44:00,SystemResetWarning,0831.1,5.01,000.00,024.4,023.1,000.0,032.8,025.7,7.6,0000.0,0008.09,0003.73,0003.24
2023-11-11 03:45:00,SystemResetWarning,0831.1,5.01,000.00,024.4,023.1,000.0,032.8,025.7,7.6,0000.0,0008.38,0003.76,0003.23
2023-11-11 03:46:00,SystemResetWarning,0831.1,4.99,000.00,024.3,023.1,000.0,032.8,025.7,7.6,0000.0,0008.73,0003.75,0003.23
2023-11-11 03:47:00,SystemResetWarning,0831.1,4.99,000.00,024.3,023.1,000.0,032.8,025.6,7.6,0000.0,0008.39,0003.70,0003.22
2023-11-11 03:48:00,SystemResetWarning,0831.1,5.01,000.00,024.3,023.1,000.0,032.8,025.6,7.6,0000.0,0008.37,0003.69,0003.22
2023-11-11 03:49:00,SystemResetWarning,0831.1,5.01,000.00,024.3,023.0,000.0,032.8,025.6,7.7,0000.0,0008.38,0003.68,0003.22
2023-11-11 03:50:00,SystemResetWarning,0831.1,5.00,000.00,024.3,023.0,000.0,032.8,025.6,7.7,0000.0,0008.68,0003.72,0003.22
2023-11-11 03:51:00,SystemResetWarning,0831.1,5.00,000.00,024.3,023.0,000.0,032.8,025.6,7.8,0000.0,0008.87,0003.74,0003.22
2023-11-11 03:52:00,SystemResetWarning,0831.1,5.00,000.00,024.3,023.0,000.0,032.8,025.6,7.8,0000.0,0009.66,0003.79,0003.22
2023-11-11 03:53:00,SystemResetWarning,0831.1,4.99,000.00,024.3,023.0,000.0,032.8,025.5,7.9,0000.0,0010.02,0003.78,0003.21
2023-11-11 03:54:00,SystemResetWarning,0831.1,5.00,000.00,024.2,023.0,000.0,032.8,025.5,7.9,0000.0,0010.38,0003.77,0003.21
2023-11-11 03:55:00,SystemResetWarning,0831.2,5.02,000.00,024.2,023.0,000.0,032.7,025.5,7.9,0000.0,0010.34,0003.76,0003.21
2023-11-11 03:56:00,SystemResetWarning,0831.2,5.00,000.00,024.2,023.0,000.0,032.7,025.5,7.9,0000.0,0010.24,0003.76,0003.21
2023-11-11 03:57:00,SystemResetWarning,0831.2,5.00,000.00,024.2,023.0,000.0,032.7,025.5,8.0,0000.0,0009.82,0003.76,0003.22
2023-11-11 03:58:00,SystemResetWarning,0831.2,5.00,000.00,024.2,023.0,000.0,032.7,025.5,8.0,0000.0,0009.76,0003.78,0003.22
2023-11-11 03:59:00,SystemResetWarning,0831.2,5.00,000.00,024.2,023.0,000.0,032.7,025.5,7.9,0000.0,0009.58,0003.78,0003.23
